Time,TemperatureF,DewpointF,PressureIn,WindDirection,WindDirectionDegrees,WindSpeedMPH,WindSpeedGustMPH,Humidity,HourlyPrecipIn,Conditions,Clouds,dailyrainin,SoftwareType,DateUTC
2013-03-08 00:00:00,49.1,15.7,30.05,WSW,241,0.0,5.8,26,0.00,,---,0.00,VWS V13.01,2013-03-08 07:00:00,
2013-03-08 00:07:00,48.9,15.6,30.05,SW,225,0.0,0.0,26,0.00,,---,0.00,VWS V13.01,2013-03-08 07:07:00,
2013-03-08 00:12:00,48.7,15.4,30.05,SW,225,0.0,0.0,26,0.00,,---,0.00,VWS V13.01,2013-03-08 07:12:00,
2013-03-08 00:17:00,48.4,15.1,30.05,SE,127,5.4,5.8,26,0.00,,---,0.00,VWS V13.01,2013-03-08 07:17:00,
2013-03-08 00:22:00,48.4,15.1,30.05,SE,145,4.9,5.8,26,0.00,,---,0.00,VWS V13.01,2013-03-08 07:22:00,
2013-03-08 00:27:00,48.6,15.2,30.05,SSE,166,3.6,5.8,26,0.00,,---,0.00,VWS V13.01,2013-03-08 07:27:00,
2013-03-08 00:32:00,48.6,15.2,30.05,South,177,3.1,5.8,26,0.00,,---,0.00,VWS V13.01,2013-03-08 07:32:00,
2013-03-08 00:37:00,48.6,16.1,30.05,South,179,3.6,5.8,27,0.00,,---,0.00,VWS V13.01,2013-03-08 07:37:00,
2013-03-08 00:42:00,48.2,15.8,30.05,South,179,3.1,5.8,27,0.00,,---,0.00,VWS V13.01,2013-03-08 07:42:00,
2013-03-08 00:48:00,48.2,15.8,30.05,SSW,204,0.0,5.8,27,0.00,,---,0.00,VWS V13.01,2013-03-08 07:48:00,
2013-03-08 00:53:00,48.4,16.8,30.05,SW,217,0.0,5.8,28,0.00,,---,0.00,VWS V13.01,2013-03-08 07:53:00,
2013-03-08 00:58:00,48.6,17.0,30.05,SW,223,4.9,5.8,28,0.00,,---,0.00,VWS V13.01,2013-03-08 07:58:00,
2013-03-08 01:03:00,49.5,17.7,30.02,SW,236,5.4,5.8,28,0.00,,---,0.00,VWS V13.01,2013-03-08 08:03:00,
2013-03-08 01:08:00,50.2,18.4,30.02,SSW,213,4.0,8.1,28,0.00,,---,0.00,VWS V13.01,2013-03-08 08:08:00,
2013-03-08 01:13:00,50.5,18.7,30.02,SW,226,5.4,8.1,28,0.00,,---,0.00,VWS V13.01,2013-03-08 08:13:00,
2013-03-08 01:18:00,50.7,18.8,30.02,SSW,204,5.8,8.1,28,0.00,,---,0.00,VWS V13.01,2013-03-08 08:18:00,
2013-03-08 01:23:00,51.1,19.1,30.02,SSW,212,6.3,8.1,28,0.00,,---,0.00,VWS V13.01,2013-03-08 08:23:00,
2013-03-08 01:28:00,51.4,19.4,30.02,SSW,198,4.0,8.1,28,0.00,,---,0.00,VWS V13.01,2013-03-08 08:28:00,
2013-03-08 01:33:00,51.8,19.8,30.02,SSW,213,3.6,8.1,28,0.00,,---,0.00,VWS V13.01,2013-03-08 08:33:00,
2013-03-08 01:39:00,51.6,19.6,30.02,SSW,213,3.6,8.1,28,0.00,,---,0.00,VWS V13.01,2013-03-08 08:39:00,
2013-03-08 01:44:00,51.8,19.8,30.02,SW,224,2.7,8.1,28,0.00,,---,0.00,VWS V13.01,2013-03-08 08:44:00,
2013-03-08 01:49:00,51.8,19.8,30.02,SW,226,4.0,8.1,28,0.00,,---,0.00,VWS V13.01,2013-03-08 08:49:00,
2013-03-08 01:54:00,52.0,19.9,30.02,SW,231,3.1,8.1,28,0.00,,---,0.00,VWS V13.01,2013-03-08 08:54:00,
2013-03-08 01:59:00,52.2,20.1,30.02,SSW,210,3.1,8.1,28,0.00,,---,0.00,VWS V13.01,2013-03-08 08:59:00,
2013-03-08 02:04:00,52.0,19.1,30.02,SSW,210,0.0,3.1,27,0.00,,---,0.00,VWS V13.01,2013-03-08 09:04:00,
2013-03-08 02:09:00,52.0,19.1,30.02,SSW,210,0.0,3.1,27,0.00,,---,0.00,VWS V13.01,2013-03-08 09:09:00,
2013-03-08 02:14:00,51.8,18.9,30.02,South,175,0.0,3.1,27,0.00,,---,0.00,VWS V13.01,2013-03-08 09:14:00,
2013-03-08 02:19:00,52.3,19.4,30.02,SSE,166,3.6,4.0,27,0.00,,---,0.00,VWS V13.01,2013-03-08 09:19:00,
2013-03-08 02:25:00,52.3,19.4,30.02,SSE,167,4.0,5.4,27,0.00,,---,0.00,VWS V13.01,2013-03-08 09:25:00,
2013-03-08 02:30:00,52.3,20.2,30.02,SSE,167,5.4,6.3,28,0.00,,---,0.00,VWS V13.01,2013-03-08 09:30:00,
2013-03-08 02:35:00,52.3,19.4,30.02,South,186,4.0,6.3,27,0.00,,---,0.00,VWS V13.01,2013-03-08 09:35:00,
2013-03-08 02:40:00,52.3,19.4,30.02,SSE,166,4.0,6.3,27,0.00,,---,0.00,VWS V13.01,2013-03-08 09:40:00,
2013-03-08 02:45:00,52.2,19.2,30.02,South,171,2.7,6.3,27,0.00,,---,0.00,VWS V13.01,2013-03-08 09:45:00,
2013-03-08 02:50:00,52.2,19.2,30.02,SSE,159,2.7,6.3,27,0.00,,---,0.00,VWS V13.01,2013-03-08 09:50:00,
2013-03-08 02:55:00,52.3,20.2,30.02,SSE,151,3.1,6.3,28,0.00,,---,0.00,VWS V13.01,2013-03-08 09:55:00,
2013-03-08 03:00:00,52.5,20.4,30.02,SSE,155,4.9,4.9,28,0.00,,---,0.00,VWS V13.01,2013-03-08 10:00:00,
2013-03-08 03:05:00,53.2,21.0,30.02,SE,144,5.4,5.8,28,0.00,,---,0.00,VWS V13.01,2013-03-08 10:05:00,
2013-03-08 03:11:00,53.6,21.3,30.02,SE,139,10.1,12.8,28,0.00,,---,0.00,VWS V13.01,2013-03-08 10:11:00,
2013-03-08 03:16:00,53.4,21.1,29.99,SE,144,7.6,12.8,28,0.00,,---,0.00,VWS V13.01,2013-03-08 10:16:00,
2013-03-08 03:21:00,53.4,21.1,29.99,SE,141,4.0,12.8,28,0.00,,---,0.00,VWS V13.01,2013-03-08 10:21:00,
2013-03-08 03:26:00,53.4,21.1,29.99,SSE,150,5.4,12.8,28,0.00,,---,0.00,VWS V13.01,2013-03-08 10:26:00,
2013-03-08 03:31:00,53.4,21.1,29.99,SE,134,5.8,12.8,28,0.00,,---,0.00,VWS V13.01,2013-03-08 10:31:00,
2013-03-08 03:36:00,53.4,21.1,29.99,SE,138,4.0,12.8,28,0.00,,---,0.00,VWS V13.01,2013-03-08 10:36:00,
2013-03-08 03:41:00,53.4,21.1,29.99,SE,140,4.0,12.8,28,0.00,,---,0.00,VWS V13.01,2013-03-08 10:41:00,
2013-03-08 03:46:00,53.6,20.5,29.99,SSE,149,7.6,12.8,27,0.00,,---,0.00,VWS V13.01,2013-03-08 10:46:00,
2013-03-08 03:51:00,53.4,21.1,29.99,SSE,155,3.6,12.8,28,0.00,,---,0.00,VWS V13.01,2013-03-08 10:51:00,
2013-03-08 03:56:00,53.4,21.1,29.99,SSE,157,4.0,12.8,28,0.00,,---,0.00,VWS V13.01,2013-03-08 10:56:00,
2013-03-08 04:01:00,53.4,21.1,29.99,SE,135,7.2,7.2,28,0.00,,---,0.00,VWS V13.01,2013-03-08 11:01:00,
2013-03-08 04:06:00,53.2,21.0,29.99,SSE,159,2.7,7.2,28,0.00,,---,0.00,VWS V13.01,2013-03-08 11:06:00,
2013-03-08 04:11:00,53.1,20.8,29.99,ESE,115,4.0,7.2,28,0.00,,---,0.00,VWS V13.01,2013-03-08 11:11:00,
2013-03-08 04:17:00,53.2,21.0,29.99,SSE,154,4.9,7.2,28,0.00,,---,0.00,VWS V13.01,2013-03-08 11:17:00,
2013-03-08 04:22:00,53.1,20.8,29.99,South,171,3.1,7.2,28,0.00,,---,0.00,VWS V13.01,2013-03-08 11:22:00,
2013-03-08 04:27:00,53.1,20.8,29.99,SE,146,3.1,7.2,28,0.00,,---,0.00,VWS V13.01,2013-03-08 11:27:00,
2013-03-08 04:32:00,52.9,21.5,29.99,SSE,161,4.0,7.2,29,0.00,,---,0.00,VWS V13.01,2013-03-08 11:32:00,
2013-03-08 04:37:00,52.9,21.5,29.99,SE,146,2.7,7.2,29,0.00,,---,0.00,VWS V13.01,2013-03-08 11:37:00,
2013-03-08 04:42:00,52.9,21.5,29.99,SE,133,3.6,7.2,29,0.00,,---,0.00,VWS V13.01,2013-03-08 11:42:00,
2013-03-08 04:47:00,52.7,21.4,29.99,SE,129,0.0,7.2,29,0.00,,---,0.00,VWS V13.01,2013-03-08 11:47:00,
2013-03-08 04:52:00,52.7,21.4,29.99,SE,126,2.2,7.2,29,0.00,,---,0.00,VWS V13.01,2013-03-08 11:52:00,
2013-03-08 04:57:00,53.1,23.2,29.99,SW,216,2.7,8.1,31,0.00,,---,0.00,VWS V13.01,2013-03-08 11:57:00,
2013-03-08 05:03:00,53.8,25.4,29.99,South,187,8.1,8.1,33,0.00,,---,0.00,VWS V13.01,2013-03-08 12:03:00,
2013-03-08 05:08:00,53.8,24.6,29.99,South,175,4.9,8.1,32,0.00,,---,0.00,VWS V13.01,2013-03-08 12:08:00,
2013-03-08 05:13:00,54.0,25.5,29.99,SW,220,4.0,8.1,33,0.00,,---,0.00,VWS V13.01,2013-03-08 12:13:00,
2013-03-08 05:18:00,54.0,24.8,29.99,SE,138,5.8,8.1,32,0.00,,---,0.00,VWS V13.01,2013-03-08 12:18:00,
2013-03-08 05:23:00,53.6,23.7,29.99,SE,134,5.4,8.3,31,0.00,,---,0.00,VWS V13.01,2013-03-08 12:23:00,
2013-03-08 05:28:00,53.1,22.5,29.99,ESE,117,5.4,8.3,30,0.00,,---,0.00,VWS V13.01,2013-03-08 12:28:00,
2013-03-08 05:33:00,52.5,22.0,29.99,ESE,105,5.4,8.3,30,0.00,,---,0.00,VWS V13.01,2013-03-08 12:33:00,
2013-03-08 05:38:00,52.3,21.8,29.99,SE,133,5.8,8.3,30,0.00,,---,0.00,VWS V13.01,2013-03-08 12:38:00,
2013-03-08 05:44:00,52.2,21.7,29.99,ESE,122,3.6,8.3,30,0.00,,---,0.00,VWS V13.01,2013-03-08 12:44:00,
2013-03-08 05:49:00,51.8,21.4,29.99,SSE,166,4.9,8.3,30,0.00,,---,0.00,VWS V13.01,2013-03-08 12:49:00,
2013-03-08 05:54:00,51.6,22.0,29.99,SE,140,6.3,8.3,31,0.00,,---,0.00,VWS V13.01,2013-03-08 12:54:00,
2013-03-08 05:59:00,51.4,22.6,29.99,SSE,155,8.1,8.3,32,0.00,,---,0.00,VWS V13.01,2013-03-08 12:59:00,
2013-03-08 06:04:00,51.4,21.8,29.99,SE,143,5.4,8.7,31,0.00,,---,0.00,VWS V13.01,2013-03-08 13:04:00,
2013-03-08 06:09:00,51.1,21.5,29.99,SE,146,5.4,8.7,31,0.00,,---,0.00,VWS V13.01,2013-03-08 13:09:00,
2013-03-08 06:14:00,50.9,21.4,29.99,SSE,155,5.4,8.7,31,0.00,,---,0.00,VWS V13.01,2013-03-08 13:14:00,
2013-03-08 06:19:00,50.9,21.4,29.99,SE,142,3.6,8.7,31,0.00,,---,0.00,VWS V13.01,2013-03-08 13:19:00,
2013-03-08 06:24:00,50.7,22.0,29.99,SSE,155,6.3,8.7,32,0.00,,---,0.00,VWS V13.01,2013-03-08 13:24:00,
2013-03-08 06:29:00,50.7,22.0,29.99,SE,132,7.6,8.7,32,0.00,,---,0.00,VWS V13.01,2013-03-08 13:29:00,
2013-03-08 06:35:00,50.7,22.0,29.99,SSE,150,5.8,8.7,32,0.00,,---,0.00,VWS V13.01,2013-03-08 13:35:00,
2013-03-08 06:40:00,51.4,25.4,29.99,SSE,151,5.4,9.2,36,0.00,,---,0.00,VWS V13.01,2013-03-08 13:40:00,
2013-03-08 06:45:00,51.8,25.7,29.99,SSE,150,4.9,13.2,36,0.00,,---,0.00,VWS V13.01,2013-03-08 13:45:00,
2013-03-08 06:50:00,51.8,25.0,29.99,SSE,153,7.6,13.2,35,0.00,,---,0.00,VWS V13.01,2013-03-08 13:50:00,
2013-03-08 06:55:00,51.6,25.6,29.99,SSE,157,5.4,13.2,36,0.00,,---,0.00,VWS V13.01,2013-03-08 13:55:00,
2013-03-08 07:00:00,52.3,26.9,29.99,SSW,202,6.3,13.2,37,0.00,,---,0.00,VWS V13.01,2013-03-08 14:00:00,
2013-03-08 07:05:00,52.3,26.9,29.99,SSW,203,6.3,7.6,37,0.00,,---,0.00,VWS V13.01,2013-03-08 14:05:00,
2013-03-08 07:11:00,52.5,27.0,29.99,South,171,4.0,8.3,37,0.00,,---,0.00,VWS V13.01,2013-03-08 14:11:00,
2013-03-08 07:16:00,52.0,26.5,29.99,SSE,156,7.2,8.3,37,0.00,,---,0.00,VWS V13.01,2013-03-08 14:16:00,
2013-03-08 07:21:00,52.2,26.0,29.99,South,169,5.8,8.3,36,0.00,,---,0.00,VWS V13.01,2013-03-08 14:21:00,
2013-03-08 07:26:00,52.5,26.4,29.99,South,173,6.3,8.3,36,0.00,,---,0.00,VWS V13.01,2013-03-08 14:26:00,
2013-03-08 07:31:00,53.1,26.8,29.99,SE,145,10.5,10.5,36,0.00,,---,0.00,VWS V13.01,2013-03-08 14:31:00,
2013-03-08 07:37:00,53.1,26.8,29.99,SE,137,5.8,10.5,36,0.00,,---,0.00,VWS V13.01,2013-03-08 14:37:00,
2013-03-08 07:42:00,52.9,26.7,29.99,SSE,152,5.4,10.5,36,0.00,,---,0.00,VWS V13.01,2013-03-08 14:42:00,
2013-03-08 07:47:00,52.9,27.3,29.99,SE,143,5.4,10.5,37,0.00,,---,0.00,VWS V13.01,2013-03-08 14:47:00,
2013-03-08 07:52:00,52.7,27.8,29.99,SE,145,6.3,10.5,38,0.00,,---,0.00,VWS V13.01,2013-03-08 14:52:00,
2013-03-08 07:57:00,52.3,33.2,29.99,SE,142,5.8,10.5,48,0.00,,---,0.00,VWS V13.01,2013-03-08 14:57:00,
2013-03-08 08:02:00,51.8,33.8,30.02,SSW,203,2.7,6.7,50,0.00,,---,0.00,VWS V13.01,2013-03-08 15:02:00,
2013-03-08 08:07:00,51.6,38.2,30.02,WSW,238,4.0,6.7,60,0.00,,---,0.00,VWS V13.01,2013-03-08 15:07:00,
2013-03-08 08:12:00,51.8,40.4,30.02,SSW,194,5.8,10.1,65,0.00,,---,0.00,VWS V13.01,2013-03-08 15:12:00,
2013-03-08 08:18:00,51.6,41.8,30.02,SW,215,11.0,15.0,69,0.00,,---,0.00,VWS V13.01,2013-03-08 15:18:00,
2013-03-08 08:23:00,51.1,42.7,30.02,South,191,8.3,15.4,73,0.00,,---,0.00,VWS V13.01,2013-03-08 15:23:00,
2013-03-08 08:28:00,51.1,43.1,30.02,SW,218,8.7,15.4,74,0.00,,---,0.00,VWS V13.01,2013-03-08 15:28:00,
2013-03-08 08:33:00,51.3,43.3,30.02,SSW,203,8.3,15.4,74,0.00,,---,0.00,VWS V13.01,2013-03-08 15:33:00,
2013-03-08 08:38:00,51.4,43.4,30.02,SSW,197,5.8,15.4,74,0.00,,---,0.00,VWS V13.01,2013-03-08 15:38:00,
2013-03-08 08:43:00,51.8,43.8,30.02,SSW,197,8.1,15.4,74,0.00,,---,0.00,VWS V13.01,2013-03-08 15:43:00,
2013-03-08 08:48:00,51.6,42.9,30.02,SW,219,5.4,15.4,72,0.00,,---,0.00,VWS V13.01,2013-03-08 15:48:00,
2013-03-08 08:53:00,51.3,43.6,30.02,SW,230,4.0,15.4,75,0.00,,---,0.00,VWS V13.01,2013-03-08 15:53:00,
2013-03-08 08:58:00,51.1,44.1,30.02,SSW,200,4.9,15.4,77,0.00,,---,0.00,VWS V13.01,2013-03-08 15:58:00,
2013-03-08 09:04:00,51.3,43.3,30.02,SSW,196,3.1,8.3,74,0.00,,---,0.00,VWS V13.01,2013-03-08 16:04:00,
2013-03-08 09:09:00,51.3,43.6,30.02,SSE,152,8.7,8.7,75,0.00,,---,0.00,VWS V13.01,2013-03-08 16:09:00,
2013-03-08 09:14:00,51.4,43.8,30.02,South,179,6.3,9.6,75,0.00,,---,0.00,VWS V13.01,2013-03-08 16:14:00,
2013-03-08 09:19:00,51.4,43.1,30.02,South,173,7.6,9.6,73,0.04,,---,0.04,VWS V13.01,2013-03-08 16:19:00,
2013-03-08 09:24:00,51.4,44.8,30.02,South,187,12.8,12.8,78,0.04,,---,0.04,VWS V13.01,2013-03-08 16:24:00,
2013-03-08 09:29:00,52.0,45.3,30.02,South,172,7.6,12.8,78,0.04,,---,0.04,VWS V13.01,2013-03-08 16:29:00,
2013-03-08 09:34:00,52.7,46.7,29.99,SSW,203,11.4,12.8,80,0.04,,---,0.04,VWS V13.01,2013-03-08 16:34:00,
2013-03-08 09:39:00,53.2,46.2,29.99,South,180,9.6,13.2,77,0.04,,---,0.04,VWS V13.01,2013-03-08 16:39:00,
2013-03-08 09:44:00,53.8,45.3,29.99,SSW,202,14.5,15.0,73,0.04,,---,0.04,VWS V13.01,2013-03-08 16:44:00,
2013-03-08 09:50:00,54.3,45.1,29.99,South,180,11.0,17.4,71,0.04,,---,0.04,VWS V13.01,2013-03-08 16:50:00,
2013-03-08 09:55:00,54.7,44.3,29.99,SSW,192,15.4,17.4,68,0.04,,---,0.04,VWS V13.01,2013-03-08 16:55:00,
2013-03-08 10:00:00,55.0,43.9,29.99,SSW,207,10.5,17.4,66,0.04,,---,0.04,VWS V13.01,2013-03-08 17:00:00,
2013-03-08 10:05:00,55.4,43.4,29.99,SW,214,8.1,17.4,64,0.04,,---,0.04,VWS V13.01,2013-03-08 17:05:00,
2013-03-08 10:10:00,55.9,43.1,29.99,SSW,200,19.2,20.1,62,0.04,,---,0.04,VWS V13.01,2013-03-08 17:10:00,
2013-03-08 10:15:00,56.1,41.1,29.99,SSW,206,15.4,24.2,57,0.04,,---,0.04,VWS V13.01,2013-03-08 17:15:00,
2013-03-08 10:20:00,56.7,40.7,29.99,SSE,166,19.7,24.2,55,0.04,,---,0.04,VWS V13.01,2013-03-08 17:20:00,
2013-03-08 10:25:00,56.7,40.2,29.99,SSW,212,10.5,24.2,54,0.04,,---,0.04,VWS V13.01,2013-03-08 17:25:00,
2013-03-08 10:31:00,56.7,40.7,29.99,SSE,158,10.1,24.2,55,0.04,,---,0.04,VWS V13.01,2013-03-08 17:31:00,
2013-03-08 10:36:00,56.8,39.9,29.99,SW,231,15.0,24.2,53,0.04,,---,0.04,VWS V13.01,2013-03-08 17:36:00,
2013-03-08 10:41:00,57.9,39.4,29.99,SW,219,10.5,24.2,50,0.04,,---,0.04,VWS V13.01,2013-03-08 17:41:00,
2013-03-08 10:46:00,58.3,39.7,29.99,SSW,202,10.5,24.2,50,0.04,,---,0.04,VWS V13.01,2013-03-08 17:46:00,
2013-03-08 10:51:00,59.2,39.5,29.99,SSW,201,11.0,24.2,48,0.04,,---,0.04,VWS V13.01,2013-03-08 17:51:00,
2013-03-08 10:56:00,59.4,38.6,29.99,SW,225,14.5,24.2,46,0.04,,---,0.04,VWS V13.01,2013-03-08 17:56:00,
2013-03-08 11:01:00,59.2,38.4,29.99,West,264,12.8,12.8,46,0.00,,---,0.04,VWS V13.01,2013-03-08 18:01:00,
2013-03-08 11:06:00,59.9,39.1,29.99,SSW,206,12.3,15.0,46,0.00,,---,0.04,VWS V13.01,2013-03-08 18:06:00,
2013-03-08 11:11:00,59.9,39.1,29.99,SW,234,21.0,21.0,46,0.00,,---,0.04,VWS V13.01,2013-03-08 18:11:00,
2013-03-08 11:17:00,59.2,38.4,29.99,SW,214,15.4,21.0,46,0.00,,---,0.04,VWS V13.01,2013-03-08 18:17:00,
2013-03-08 11:22:00,59.4,38.0,29.99,SSW,203,13.2,21.0,45,0.00,,---,0.04,VWS V13.01,2013-03-08 18:22:00,
2013-03-08 11:27:00,59.5,37.6,29.99,SW,219,11.4,21.0,44,0.00,,---,0.04,VWS V13.01,2013-03-08 18:27:00,
2013-03-08 11:32:00,59.7,38.4,29.99,South,191,15.4,21.0,45,0.08,,---,0.12,VWS V13.01,2013-03-08 18:32:00,
2013-03-08 11:37:00,59.9,38.5,29.99,SSW,203,14.1,21.0,45,0.08,,---,0.12,VWS V13.01,2013-03-08 18:37:00,
2013-03-08 11:42:00,59.7,37.8,29.99,South,186,15.4,21.0,44,0.08,,---,0.12,VWS V13.01,2013-03-08 18:42:00,
2013-03-08 11:47:00,60.3,37.7,29.96,SW,217,17.4,21.0,43,0.08,,---,0.12,VWS V13.01,2013-03-08 18:47:00,
2013-03-08 11:52:00,61.0,38.9,29.96,South,176,11.0,21.0,44,0.08,,---,0.12,VWS V13.01,2013-03-08 18:52:00,
2013-03-08 11:58:00,60.6,38.0,29.96,South,188,10.5,21.0,43,0.08,,---,0.12,VWS V13.01,2013-03-08 18:58:00,
2013-03-08 12:00:00,60.1,37.5,29.96,South,175,12.8,21.0,43,0.08,,---,0.12,VWS V13.01,2013-03-08 19:00:00,
2013-03-08 12:05:00,60.1,38.1,29.96,SSW,209,15.0,15.0,44,0.00,,---,0.12,VWS V13.01,2013-03-08 19:05:00,
2013-03-08 12:10:00,59.4,36.9,29.96,SSW,197,17.9,19.7,43,0.00,,---,0.00,VWS V13.01,2013-03-08 19:10:00,
2013-03-08 12:15:00,60.1,37.5,29.96,SW,234,16.8,21.0,43,0.08,,---,0.54,VWS V13.01,2013-03-08 19:15:00,
2013-03-08 12:20:00,60.4,37.9,29.96,SSW,198,15.0,21.0,43,0.08,,---,0.54,VWS V13.01,2013-03-08 19:20:00,
2013-03-08 12:26:00,60.4,37.3,29.96,SSW,201,8.7,21.0,42,0.08,,---,0.54,VWS V13.01,2013-03-08 19:26:00,
2013-03-08 12:31:00,60.6,37.4,29.96,South,190,13.6,21.0,42,0.08,,---,0.54,VWS V13.01,2013-03-08 19:31:00,
2013-03-08 12:36:00,60.4,37.3,29.96,South,176,14.5,21.0,42,0.08,,---,0.54,VWS V13.01,2013-03-08 19:36:00,
2013-03-08 12:41:00,60.6,38.0,29.96,South,174,14.1,21.0,43,0.08,,---,0.54,VWS V13.01,2013-03-08 19:41:00,
2013-03-08 12:46:00,61.0,37.8,29.96,South,185,11.0,21.0,42,0.08,,---,0.54,VWS V13.01,2013-03-08 19:46:00,
2013-03-08 12:51:00,60.8,37.6,29.96,South,191,14.5,21.0,42,0.08,,---,0.54,VWS V13.01,2013-03-08 19:51:00,
2013-03-08 12:56:00,61.2,37.9,29.96,South,181,16.3,21.0,42,0.08,,---,0.54,VWS V13.01,2013-03-08 19:56:00,
2013-03-08 13:01:00,61.0,37.1,29.96,SW,227,9.2,15.4,41,0.00,,---,0.54,VWS V13.01,2013-03-08 20:01:00,
2013-03-08 13:07:00,61.3,37.5,29.96,SSW,205,12.8,15.4,41,0.00,,---,0.54,VWS V13.01,2013-03-08 20:07:00,
2013-03-08 13:12:00,61.5,37.6,29.96,SSE,167,12.8,19.7,41,0.00,,---,0.54,VWS V13.01,2013-03-08 20:12:00,
2013-03-08 13:17:00,61.9,37.3,29.93,SSW,195,13.6,21.0,40,0.00,,---,0.54,VWS V13.01,2013-03-08 20:17:00,
2013-03-08 13:22:00,62.2,37.6,29.93,South,184,15.0,21.0,40,0.00,,---,0.54,VWS V13.01,2013-03-08 20:22:00,
2013-03-08 13:27:00,62.2,37.6,29.93,SW,228,14.5,21.0,40,0.00,,---,0.54,VWS V13.01,2013-03-08 20:27:00,
2013-03-08 13:32:00,62.6,37.3,29.93,SSW,212,8.1,21.0,39,0.00,,---,0.54,VWS V13.01,2013-03-08 20:32:00,
2013-03-08 13:37:00,63.0,37.0,29.93,South,187,14.5,21.0,38,0.00,,---,0.54,VWS V13.01,2013-03-08 20:37:00,
2013-03-08 13:42:00,63.1,36.5,29.93,SSW,204,13.2,21.0,37,0.00,,---,0.54,VWS V13.01,2013-03-08 20:42:00,
2013-03-08 13:48:00,62.2,36.3,29.90,SSW,193,13.2,21.0,38,0.00,,---,0.54,VWS V13.01,2013-03-08 20:48:00,
2013-03-08 13:53:00,59.9,36.8,29.90,South,187,8.7,26.2,42,0.00,,---,0.54,VWS V13.01,2013-03-08 20:53:00,
2013-03-08 13:58:00,57.7,39.2,29.90,WSW,257,11.0,26.2,50,0.00,,---,0.54,VWS V13.01,2013-03-08 20:58:00,
2013-03-08 14:03:00,56.8,39.9,29.93,West,271,8.3,11.9,53,0.00,,---,0.54,VWS V13.01,2013-03-08 21:03:00,
2013-03-08 14:08:00,53.4,42.4,29.93,WSW,258,13.2,13.2,66,0.00,,---,0.54,VWS V13.01,2013-03-08 21:08:00,
2013-03-08 14:13:00,50.4,41.7,29.93,WNW,287,12.3,20.1,72,0.00,,---,0.54,VWS V13.01,2013-03-08 21:13:00,
2013-03-08 14:18:00,49.5,42.6,29.93,SW,234,11.9,23.7,77,0.00,,---,0.54,VWS V13.01,2013-03-08 21:18:00,
2013-03-08 14:23:00,49.5,42.6,29.93,WSW,237,13.2,23.7,77,0.00,,---,0.54,VWS V13.01,2013-03-08 21:23:00,
2013-03-08 14:28:00,49.8,44.9,29.93,SW,218,8.3,23.7,83,0.12,,---,0.65,VWS V13.01,2013-03-08 21:28:00,
2013-03-08 14:33:00,50.0,43.8,29.93,SW,214,12.8,23.7,79,0.12,,---,0.65,VWS V13.01,2013-03-08 21:33:00,
2013-03-08 14:39:00,51.3,46.0,29.93,SSW,202,13.2,23.7,82,0.16,,---,0.69,VWS V13.01,2013-03-08 21:39:00,
2013-03-08 14:44:00,52.5,46.9,29.93,SSW,200,8.3,23.7,81,0.16,,---,0.69,VWS V13.01,2013-03-08 21:44:00,
2013-03-08 14:49:00,53.4,45.7,29.90,SW,235,11.0,23.7,75,0.16,,---,0.69,VWS V13.01,2013-03-08 21:49:00,
2013-03-08 14:54:00,54.1,44.2,29.90,SW,224,22.4,23.7,69,0.16,,---,0.69,VWS V13.01,2013-03-08 21:54:00,
2013-03-08 14:59:00,54.1,43.4,29.90,WSW,239,12.8,23.7,67,0.16,,---,0.69,VWS V13.01,2013-03-08 21:59:00,
2013-03-08 15:05:00,55.2,43.7,29.90,SW,222,12.8,18.8,65,0.16,,---,0.69,VWS V13.01,2013-03-08 22:05:00,
2013-03-08 15:10:00,55.6,44.4,29.90,SSW,210,10.5,21.0,66,0.16,,---,0.69,VWS V13.01,2013-03-08 22:10:00,
2013-03-08 15:15:00,55.9,42.7,29.90,South,181,11.0,21.0,61,0.16,,---,0.69,VWS V13.01,2013-03-08 22:15:00,
2013-03-08 15:20:00,56.1,42.4,29.90,SSW,213,11.0,21.0,60,0.16,,---,0.69,VWS V13.01,2013-03-08 22:20:00,
2013-03-08 15:25:00,56.3,42.6,29.90,SW,228,15.0,21.0,60,0.16,,---,0.69,VWS V13.01,2013-03-08 22:25:00,
2013-03-08 15:30:00,56.3,41.3,29.90,WSW,254,17.0,21.0,57,0.16,,---,0.69,VWS V13.01,2013-03-08 22:30:00,
2013-03-08 15:35:00,55.8,39.4,29.90,WSW,242,12.3,21.0,54,0.16,,---,0.69,VWS V13.01,2013-03-08 22:35:00,
2013-03-08 15:40:00,55.6,39.7,29.90,WSW,237,17.9,21.0,55,0.16,,---,0.69,VWS V13.01,2013-03-08 22:40:00,
2013-03-08 15:45:00,55.4,38.1,29.90,SSW,195,12.3,21.0,52,0.16,,---,0.69,VWS V13.01,2013-03-08 22:45:00,
2013-03-08 15:50:00,55.0,38.2,29.90,SSW,200,10.5,21.0,53,0.16,,---,0.69,VWS V13.01,2013-03-08 22:50:00,
2013-03-08 15:55:00,54.5,37.7,29.90,SSW,201,17.4,21.0,53,0.16,,---,0.69,VWS V13.01,2013-03-08 22:55:00,
2013-03-08 16:01:00,54.0,39.5,29.90,SSW,202,15.4,17.0,58,0.16,,---,0.69,VWS V13.01,2013-03-08 23:01:00,
2013-03-08 16:06:00,54.5,40.9,29.90,SSW,210,13.2,18.8,60,0.00,,---,0.69,VWS V13.01,2013-03-08 23:06:00,
2013-03-08 16:11:00,54.5,36.8,29.90,SSW,208,13.6,19.7,51,0.00,,---,0.69,VWS V13.01,2013-03-08 23:11:00,
2013-03-08 16:16:00,54.3,36.6,29.90,SSW,201,13.2,19.7,51,0.00,,---,0.69,VWS V13.01,2013-03-08 23:16:00,
2013-03-08 16:21:00,54.3,35.1,29.90,SSW,203,20.1,23.7,48,0.00,,---,0.69,VWS V13.01,2013-03-08 23:21:00,
2013-03-08 16:27:00,55.8,35.8,29.90,South,186,19.7,23.7,47,0.04,,---,0.73,VWS V13.01,2013-03-08 23:27:00,
2013-03-08 16:32:00,55.6,35.2,29.90,SSW,199,22.8,23.7,46,0.04,,---,0.73,VWS V13.01,2013-03-08 23:32:00,
2013-03-08 16:37:00,55.0,34.7,29.90,South,187,18.8,23.7,46,0.12,,---,0.81,VWS V13.01,2013-03-08 23:37:00,
2013-03-08 16:42:00,54.3,36.1,29.90,SSW,209,17.9,23.7,50,0.12,,---,0.81,VWS V13.01,2013-03-08 23:42:00,
2013-03-08 16:47:00,53.6,36.4,29.90,South,191,15.4,23.7,52,0.12,,---,0.81,VWS V13.01,2013-03-08 23:47:00,
2013-03-08 16:52:00,53.2,37.0,29.90,SSW,193,17.0,23.7,54,0.12,,---,0.81,VWS V13.01,2013-03-08 23:52:00,
2013-03-08 16:57:00,53.2,37.5,29.90,SW,216,13.2,23.7,55,0.12,,---,0.81,VWS V13.01,2013-03-08 23:57:00,
2013-03-08 17:02:00,53.1,36.4,29.90,SSW,200,11.0,15.4,53,0.12,,---,0.81,VWS V13.01,2013-03-09 00:02:00,
2013-03-08 17:08:00,52.9,37.2,29.90,SSW,196,8.3,15.4,55,0.12,,---,0.81,VWS V13.01,2013-03-09 00:08:00,
2013-03-08 17:13:00,52.7,36.5,29.90,SSW,205,10.5,17.9,54,0.12,,---,0.81,VWS V13.01,2013-03-09 00:13:00,
2013-03-08 17:18:00,52.7,35.6,29.90,SSW,194,11.0,17.9,52,0.12,,---,0.81,VWS V13.01,2013-03-09 00:18:00,
2013-03-08 17:23:00,52.7,35.1,29.90,WSW,245,11.9,17.9,51,0.12,,---,0.81,VWS V13.01,2013-03-09 00:23:00,
2013-03-08 17:28:00,52.7,35.6,29.90,WSW,252,12.8,17.9,52,0.12,,---,0.81,VWS V13.01,2013-03-09 00:28:00,
2013-03-08 17:33:00,52.5,36.4,29.90,SW,227,15.4,17.9,54,0.12,,---,0.81,VWS V13.01,2013-03-09 00:33:00,
2013-03-08 17:38:00,52.3,38.5,29.90,SW,233,12.3,17.9,59,0.12,,---,0.81,VWS V13.01,2013-03-09 00:38:00,
2013-03-08 17:43:00,51.6,39.5,29.90,SSW,205,12.3,17.9,63,0.12,,---,0.81,VWS V13.01,2013-03-09 00:43:00,
2013-03-08 17:48:00,51.6,38.6,29.90,SW,218,12.3,17.9,61,0.12,,---,0.81,VWS V13.01,2013-03-09 00:48:00,
2013-03-08 17:54:00,51.6,37.8,29.90,West,260,10.1,17.9,59,0.12,,---,0.81,VWS V13.01,2013-03-09 00:54:00,
2013-03-08 17:59:00,51.6,37.3,29.90,WSW,245,8.3,17.9,58,0.12,,---,0.81,VWS V13.01,2013-03-09 00:59:00,
2013-03-08 18:04:00,51.8,35.7,29.90,WSW,255,12.3,12.8,54,0.00,,---,0.81,VWS V13.01,2013-03-09 01:04:00,
2013-03-08 18:09:00,51.8,35.2,29.90,West,265,15.4,17.4,53,0.00,,---,0.81,VWS V13.01,2013-03-09 01:09:00,
2013-03-08 18:14:00,51.6,36.5,29.90,West,259,15.4,18.8,56,0.00,,---,0.81,VWS V13.01,2013-03-09 01:14:00,
2013-03-08 18:20:00,51.3,34.7,29.90,West,279,16.8,18.8,53,0.00,,---,0.81,VWS V13.01,2013-03-09 01:20:00,
2013-03-08 18:25:00,50.7,34.7,29.90,West,273,22.4,23.7,54,0.00,,---,0.81,VWS V13.01,2013-03-09 01:25:00,
2013-03-08 18:30:00,50.4,34.8,29.90,WSW,255,17.4,23.7,55,0.00,,---,0.81,VWS V13.01,2013-03-09 01:30:00,
2013-03-08 18:35:00,50.0,34.9,29.90,West,264,11.4,23.7,56,0.00,,---,0.81,VWS V13.01,2013-03-09 01:35:00,
2013-03-08 18:40:00,50.0,34.5,29.90,WSW,250,19.7,23.7,55,0.00,,---,0.81,VWS V13.01,2013-03-09 01:40:00,
2013-03-08 18:45:00,50.0,33.6,29.90,West,276,12.8,23.7,53,0.00,,---,0.81,VWS V13.01,2013-03-09 01:45:00,
2013-03-08 18:50:00,49.8,33.9,29.90,West,262,11.9,23.7,54,0.00,,---,0.81,VWS V13.01,2013-03-09 01:50:00,
2013-03-08 18:56:00,49.6,33.2,29.90,West,277,17.4,23.7,53,0.00,,---,0.81,VWS V13.01,2013-03-09 01:56:00,
2013-03-08 19:01:00,48.7,34.2,29.93,West,262,15.9,15.9,57,0.00,,---,0.81,VWS V13.01,2013-03-09 02:01:00,
2013-03-08 19:06:00,48.4,34.7,29.93,West,269,11.9,17.4,59,0.00,,---,0.81,VWS V13.01,2013-03-09 02:06:00,
2013-03-08 19:11:00,48.4,33.9,29.93,West,281,13.2,17.4,57,0.00,,---,0.81,VWS V13.01,2013-03-09 02:11:00,
2013-03-08 19:16:00,47.8,34.6,29.93,West,277,15.0,17.4,60,0.00,,---,0.81,VWS V13.01,2013-03-09 02:16:00,
2013-03-08 19:21:00,47.5,35.1,29.93,West,279,17.4,17.4,62,0.00,,---,0.81,VWS V13.01,2013-03-09 02:21:00,
2013-03-08 19:27:00,46.8,35.6,29.93,WNW,293,12.8,17.4,65,0.00,,---,0.81,VWS V13.01,2013-03-09 02:27:00,
2013-03-08 19:32:00,46.6,35.8,29.93,WNW,290,17.9,17.9,66,0.00,,---,0.81,VWS V13.01,2013-03-09 02:32:00,
2013-03-08 19:37:00,46.0,36.1,29.93,West,267,14.1,21.0,68,0.00,,---,0.81,VWS V13.01,2013-03-09 02:37:00,
2013-03-08 19:42:00,45.9,35.9,29.93,West,276,15.0,21.0,68,0.00,,---,0.81,VWS V13.01,2013-03-09 02:42:00,
2013-03-08 19:47:00,45.7,36.1,29.93,West,271,12.8,22.4,69,0.00,,---,0.81,VWS V13.01,2013-03-09 02:47:00,
2013-03-08 19:52:00,45.1,36.0,29.93,West,268,11.4,22.4,70,0.00,,---,0.81,VWS V13.01,2013-03-09 02:52:00,
2013-03-08 19:57:00,45.0,35.4,29.93,West,263,12.3,22.4,69,0.00,,---,0.81,VWS V13.01,2013-03-09 02:57:00,
2013-03-08 20:02:00,44.6,35.8,29.93,West,266,9.2,18.3,71,0.00,,---,0.81,VWS V13.01,2013-03-09 03:02:00,
2013-03-08 20:07:00,44.6,35.1,29.93,West,259,16.3,18.3,69,0.00,,---,0.81,VWS V13.01,2013-03-09 03:07:00,
2013-03-08 20:13:00,44.2,35.8,29.93,West,260,12.3,18.3,72,0.00,,---,0.81,VWS V13.01,2013-03-09 03:13:00,
2013-03-08 20:18:00,44.1,36.0,29.93,West,259,16.3,18.3,73,0.00,,---,0.81,VWS V13.01,2013-03-09 03:18:00,
2013-03-08 20:23:00,43.7,36.3,29.93,WSW,237,7.6,18.3,75,0.00,,---,0.81,VWS V13.01,2013-03-09 03:23:00,
2013-03-08 20:28:00,43.5,35.8,29.93,West,261,15.9,18.3,74,0.00,,---,0.81,VWS V13.01,2013-03-09 03:28:00,
2013-03-08 20:33:00,43.3,35.6,29.96,West,265,17.4,18.3,74,0.00,,---,0.81,VWS V13.01,2013-03-09 03:33:00,
2013-03-08 20:38:00,43.3,36.0,29.96,West,262,15.4,18.3,75,0.00,,---,0.81,VWS V13.01,2013-03-09 03:38:00,
2013-03-08 20:43:00,43.5,35.1,29.96,West,272,13.6,18.3,72,0.00,,---,0.81,VWS V13.01,2013-03-09 03:43:00,
2013-03-08 20:49:00,43.5,35.8,29.96,WSW,251,9.2,18.3,74,0.00,,---,0.81,VWS V13.01,2013-03-09 03:49:00,
2013-03-08 20:54:00,43.3,36.3,29.96,SW,232,8.1,18.3,76,0.00,,---,0.81,VWS V13.01,2013-03-09 03:54:00,
2013-03-08 20:59:00,43.0,36.3,29.96,WSW,249,8.7,18.3,77,0.00,,---,0.81,VWS V13.01,2013-03-09 03:59:00,
2013-03-08 21:04:00,42.4,35.4,29.96,WNW,287,10.5,15.4,76,0.00,,---,0.81,VWS V13.01,2013-03-09 04:04:00,
2013-03-08 21:09:00,42.1,35.7,29.96,West,259,8.3,15.4,78,0.00,,---,0.81,VWS V13.01,2013-03-09 04:09:00,
2013-03-08 21:14:00,42.4,37.0,29.96,SW,233,8.1,15.9,81,0.00,,---,0.81,VWS V13.01,2013-03-09 04:14:00,
2013-03-08 21:19:00,42.6,36.9,29.96,WSW,249,8.3,15.9,80,0.00,,---,0.81,VWS V13.01,2013-03-09 04:19:00,
2013-03-08 21:24:00,43.3,35.6,29.96,WSW,254,13.2,19.2,74,0.00,,---,0.81,VWS V13.01,2013-03-09 04:24:00,
2013-03-08 21:29:00,42.4,35.8,29.96,WSW,237,11.4,19.2,77,0.00,,---,0.81,VWS V13.01,2013-03-09 04:29:00,
2013-03-08 21:34:00,41.4,35.7,29.99,West,264,11.0,24.6,80,0.00,,---,0.81,VWS V13.01,2013-03-09 04:34:00,
2013-03-08 21:40:00,41.5,35.5,29.99,WSW,254,15.0,24.6,79,0.00,,---,0.81,VWS V13.01,2013-03-09 04:40:00,
2013-03-08 21:45:00,41.7,37.0,29.99,SSW,211,7.6,24.6,83,0.04,,---,0.85,VWS V13.01,2013-03-09 04:45:00,
2013-03-08 21:50:00,42.8,34.8,29.99,SW,225,12.8,24.6,73,0.04,,---,0.85,VWS V13.01,2013-03-09 04:50:00,
2013-03-08 21:55:00,42.8,34.8,29.99,SW,227,9.6,24.6,73,0.04,,---,0.85,VWS V13.01,2013-03-09 04:55:00,
2013-03-08 22:00:00,42.8,34.1,29.99,SW,233,10.5,24.6,71,0.04,,---,0.85,VWS V13.01,2013-03-09 05:00:00,
2013-03-08 22:01:00,42.8,34.1,29.99,SW,233,10.5,10.5,71,0.04,,---,0.85,VWS V13.01,2013-03-09 05:01:00,
2013-03-08 22:07:00,42.4,33.0,29.99,WSW,257,17.4,17.4,69,0.04,,---,0.85,VWS V13.01,2013-03-09 05:07:00,
2013-03-08 22:12:00,42.4,33.4,29.99,West,276,7.6,17.4,70,0.04,,---,0.85,VWS V13.01,2013-03-09 05:12:00,
2013-03-08 22:17:00,41.2,33.5,29.99,West,271,10.5,17.4,74,0.04,,---,0.85,VWS V13.01,2013-03-09 05:17:00,
2013-03-08 22:22:00,41.2,33.9,29.99,WNW,291,11.0,17.4,75,0.04,,---,0.85,VWS V13.01,2013-03-09 05:22:00,
2013-03-08 22:27:00,41.0,33.7,29.99,WNW,291,5.4,17.4,75,0.04,,---,0.85,VWS V13.01,2013-03-09 05:27:00,
2013-03-08 22:32:00,41.2,34.2,29.99,WNW,298,8.7,17.4,76,0.04,,---,0.85,VWS V13.01,2013-03-09 05:32:00,
2013-03-08 22:37:00,40.6,34.3,29.99,West,264,12.8,17.4,78,0.04,,---,0.85,VWS V13.01,2013-03-09 05:37:00,
2013-03-08 22:42:00,40.3,33.0,29.99,West,265,8.7,17.4,75,0.04,,---,0.85,VWS V13.01,2013-03-09 05:42:00,
2013-03-08 22:47:00,40.5,32.2,29.99,West,264,13.2,22.4,72,0.04,,---,0.85,VWS V13.01,2013-03-09 05:47:00,
2013-03-08 22:53:00,40.1,32.2,29.99,West,272,9.6,26.6,73,0.04,,---,0.85,VWS V13.01,2013-03-09 05:53:00,
2013-03-08 22:58:00,39.4,32.8,29.99,WSW,253,5.4,26.6,77,0.04,,---,0.85,VWS V13.01,2013-03-09 05:58:00,
2013-03-08 23:03:00,39.4,31.8,29.99,WNW,286,5.8,6.7,74,0.00,,---,0.85,VWS V13.01,2013-03-09 06:03:00,
2013-03-08 23:08:00,39.6,32.3,29.99,West,260,9.6,9.6,75,0.00,,---,0.85,VWS V13.01,2013-03-09 06:08:00,
2013-03-08 23:13:00,40.3,32.3,29.99,West,268,10.5,15.4,73,0.00,,---,0.85,VWS V13.01,2013-03-09 06:13:00,
2013-03-08 23:18:00,40.3,33.0,29.99,WSW,249,10.1,16.3,75,0.00,,---,0.85,VWS V13.01,2013-03-09 06:18:00,
2013-03-08 23:23:00,40.1,32.8,29.99,West,271,10.1,16.3,75,0.00,,---,0.85,VWS V13.01,2013-03-09 06:23:00,
2013-03-08 23:28:00,40.1,33.2,29.99,WNW,291,8.1,16.3,76,0.00,,---,0.85,VWS V13.01,2013-03-09 06:28:00,
2013-03-08 23:33:00,39.9,33.0,29.99,WSW,258,11.0,16.3,76,0.00,,---,0.85,VWS V13.01,2013-03-09 06:33:00,
2013-03-08 23:38:00,40.1,33.5,29.99,West,267,8.3,16.3,77,0.00,,---,0.85,VWS V13.01,2013-03-09 06:38:00,
2013-03-08 23:43:00,40.3,33.3,29.99,WSW,252,8.1,16.3,76,0.00,,---,0.85,VWS V13.01,2013-03-09 06:43:00,
2013-03-08 23:48:00,40.5,32.8,29.99,West,271,10.5,16.3,74,0.00,,---,0.85,VWS V13.01,2013-03-09 06:48:00,
2013-03-08 23:54:00,40.8,32.2,29.99,WSW,256,15.4,16.3,71,0.00,,---,0.85,VWS V13.01,2013-03-09 06:54:00,
2013-03-08 23:59:00,40.6,32.0,29.99,WSW,238,8.7,16.3,71,0.00,,---,0.85,VWS V13.01,2013-03-09 06:59:00,